Time,TemperatureF,DewpointF,PressureIn,WindDirection,WindDirectionDegrees,WindSpeedMPH,WindSpeedGustMPH,Humidity,HourlyPrecipIn,Conditions,Clouds,dailyrainin,SoftwareType,DateUTC
2013-04-12 00:14:00,40.3,33.0,30.15,NW,326,4.0,9.0,75,0.00,,,0.00,weatherlink.com 1.10,2013-04-12 04:14:00,
2013-04-12 00:28:00,39.8,33.0,30.15,NNW,331,6.0,9.0,77,0.00,,,0.00,weatherlink.com 1.10,2013-04-12 04:28:00,
2013-04-12 00:43:00,39.5,34.0,30.15,NNE,14,6.0,12.0,79,0.00,,,0.00,weatherlink.com 1.10,2013-04-12 04:43:00,
2013-04-12 00:58:00,39.4,34.0,30.16,SE,124,1.0,9.0,81,0.00,,,0.00,weatherlink.com 1.10,2013-04-12 04:58:00,
2013-04-12 01:13:00,39.2,34.0,30.16,NE,46,5.0,8.0,82,0.00,,,0.00,weatherlink.com 1.10,2013-04-12 05:13:00,
2013-04-12 01:28:00,39.2,35.0,30.15,NNE,32,7.0,8.0,84,0.00,,,0.00,weatherlink.com 1.10,2013-04-12 05:28:00,
2013-04-12 01:43:00,39.4,36.0,30.14,NE,37,6.0,8.0,87,0.00,,,0.00,weatherlink.com 1.10,2013-04-12 05:43:00,
2013-04-12 01:58:00,39.5,36.0,30.13,ENE,59,1.0,7.0,88,0.00,,,0.00,weatherlink.com 1.10,2013-04-12 05:58:00,
2013-04-12 02:13:00,40.0,37.0,30.14,NNE,33,2.0,9.0,87,0.00,,,0.00,weatherlink.com 1.10,2013-04-12 06:13:00,
2013-04-12 02:28:00,40.1,36.0,30.14,NE,46,5.0,7.0,85,0.00,,,0.00,weatherlink.com 1.10,2013-04-12 06:28:00,
2013-04-12 02:43:00,40.0,35.0,30.14,NNE,33,6.0,9.0,83,0.00,,,0.00,weatherlink.com 1.10,2013-04-12 06:43:00,
2013-04-12 02:58:00,39.9,36.0,30.14,NE,48,4.0,8.0,84,0.00,,,0.00,weatherlink.com 1.10,2013-04-12 06:58:00,
2013-04-12 03:13:00,39.9,36.0,30.15,ENE,70,6.0,10.0,85,0.00,,,0.00,weatherlink.com 1.10,2013-04-12 07:13:00,
2013-04-12 03:28:00,39.8,36.0,30.14,ENE,58,3.0,12.0,85,0.00,,,0.00,weatherlink.com 1.10,2013-04-12 07:28:00,
2013-04-12 03:43:00,39.8,35.0,30.14,NE,49,3.0,9.0,84,0.00,,,0.00,weatherlink.com 1.10,2013-04-12 07:43:00,
2013-04-12 03:58:00,39.7,35.0,30.14,NNE,29,4.0,8.0,84,0.00,,,0.00,weatherlink.com 1.10,2013-04-12 07:58:00,
2013-04-12 04:13:00,39.6,36.0,30.14,NE,52,3.0,7.0,85,0.00,,,0.00,weatherlink.com 1.10,2013-04-12 08:13:00,
2013-04-12 04:28:00,39.6,35.0,30.14,NE,41,5.0,9.0,84,0.00,,,0.00,weatherlink.com 1.10,2013-04-12 08:28:00,
2013-04-12 04:43:00,39.6,36.0,30.14,ENE,66,4.0,8.0,85,0.00,,,0.00,weatherlink.com 1.10,2013-04-12 08:43:00,
2013-04-12 04:59:00,39.5,35.0,30.13,NNE,32,4.0,8.0,85,0.00,,,0.00,weatherlink.com 1.10,2013-04-12 08:59:00,
2013-04-12 05:14:00,39.3,35.0,30.14,NE,34,3.0,9.0,85,0.00,,,0.00,weatherlink.com 1.10,2013-04-12 09:14:00,
2013-04-12 05:29:00,39.4,34.0,30.13,ENE,57,9.0,11.0,81,0.00,,,0.00,weatherlink.com 1.10,2013-04-12 09:29:00,
2013-04-12 05:44:00,39.4,33.0,30.13,NE,37,5.0,13.0,79,0.00,,,0.00,weatherlink.com 1.10,2013-04-12 09:44:00,
2013-04-12 05:59:00,39.3,32.0,30.13,ENE,72,9.0,18.0,75,0.00,,,0.00,weatherlink.com 1.10,2013-04-12 09:59:00,
2013-04-12 06:14:00,39.4,31.0,30.14,North,355,4.0,9.0,72,0.00,,,0.00,weatherlink.com 1.10,2013-04-12 10:14:00,
2013-04-12 06:29:00,39.5,30.0,30.13,NE,45,2.0,13.0,68,0.00,,,0.00,weatherlink.com 1.10,2013-04-12 10:29:00,
2013-04-12 06:44:00,39.7,29.0,30.14,ENE,69,3.0,14.0,67,0.00,,,0.00,weatherlink.com 1.10,2013-04-12 10:44:00,
2013-04-12 06:59:00,39.7,30.0,30.14,ENE,72,4.0,16.0,69,0.00,,,0.00,weatherlink.com 1.10,2013-04-12 10:59:00,
2013-04-12 07:14:00,39.8,31.0,30.15,WNW,295,1.0,12.0,71,0.00,,,0.00,weatherlink.com 1.10,2013-04-12 11:14:00,
2013-04-12 07:29:00,39.8,32.0,30.15,ENE,68,10.0,13.0,74,0.00,,,0.00,weatherlink.com 1.10,2013-04-12 11:29:00,
2013-04-12 07:44:00,39.8,33.0,30.14,NNE,20,12.0,14.0,76,0.00,,,0.00,weatherlink.com 1.10,2013-04-12 11:44:00,
2013-04-12 07:59:00,39.7,33.0,30.13,East,101,4.0,20.0,76,0.00,,,0.00,weatherlink.com 1.10,2013-04-12 11:59:00,
2013-04-12 08:14:00,39.9,33.0,30.13,East,84,3.0,12.0,76,0.00,,,0.00,weatherlink.com 1.10,2013-04-12 12:14:00,
2013-04-12 08:29:00,40.0,33.0,30.11,East,84,21.0,21.0,75,0.00,,,0.00,weatherlink.com 1.10,2013-04-12 12:29:00,
2013-04-12 08:44:00,40.2,31.0,30.12,ENE,74,9.0,20.0,71,0.00,,,0.00,weatherlink.com 1.10,2013-04-12 12:44:00,
2013-04-12 08:59:00,40.3,31.0,30.10,NE,51,3.0,18.0,70,0.00,,,0.00,weatherlink.com 1.10,2013-04-12 12:59:00,
2013-04-12 09:14:00,40.3,31.0,30.11,NE,46,14.0,20.0,70,0.00,,,0.00,weatherlink.com 1.10,2013-04-12 13:14:00,
2013-04-12 09:29:00,40.3,31.0,30.10,East,98,12.0,19.0,70,0.00,,,0.00,weatherlink.com 1.10,2013-04-12 13:29:00,
2013-04-12 09:44:00,40.3,31.0,30.08,ENE,77,13.0,23.0,69,0.00,,,0.00,weatherlink.com 1.10,2013-04-12 13:44:00,
2013-04-12 09:59:00,40.3,30.0,30.08,East,93,11.0,21.0,68,0.00,,,0.00,weatherlink.com 1.10,2013-04-12 13:59:00,
2013-04-12 10:14:00,40.3,30.0,30.08,East,101,11.0,21.0,68,0.00,,,0.00,weatherlink.com 1.10,2013-04-12 14:14:00,
2013-04-12 10:29:00,40.3,31.0,30.07,ENE,63,13.0,19.0,69,0.00,,,0.00,weatherlink.com 1.10,2013-04-12 14:29:00,
2013-04-12 10:44:00,40.3,31.0,30.05,East,91,8.0,26.0,70,0.00,,,0.00,weatherlink.com 1.10,2013-04-12 14:44:00,
2013-04-12 10:59:00,40.5,31.0,30.05,East,98,18.0,23.0,70,0.00,,,0.00,weatherlink.com 1.10,2013-04-12 14:59:00,
2013-04-12 11:14:00,40.5,31.0,30.04,SE,136,7.0,22.0,70,0.00,,,0.00,weatherlink.com 1.10,2013-04-12 15:14:00,
2013-04-12 11:29:00,40.6,30.0,30.04,ENE,74,16.0,23.0,65,0.00,,,0.00,weatherlink.com 1.10,2013-04-12 15:29:00,
2013-04-12 11:44:00,40.5,30.0,30.04,East,89,21.0,21.0,66,0.00,,,0.00,weatherlink.com 1.10,2013-04-12 15:44:00,
2013-04-12 11:59:00,39.9,31.0,30.03,East,89,13.0,20.0,70,0.00,,,0.00,weatherlink.com 1.10,2013-04-12 15:59:00,
2013-04-12 12:14:00,38.6,32.0,30.02,East,86,9.0,25.0,77,0.03,,,0.03,weatherlink.com 1.10,2013-04-12 16:14:00,
2013-04-12 12:29:00,37.8,33.0,30.03,East,97,7.0,16.0,83,0.08,,,0.08,weatherlink.com 1.10,2013-04-12 16:29:00,
2013-04-12 12:44:00,37.4,34.0,30.03,ENE,72,11.0,12.0,86,0.11,,,0.11,weatherlink.com 1.10,2013-04-12 16:44:00,
2013-04-12 12:59:00,37.2,34.0,30.02,East,86,4.0,10.0,89,0.15,,,0.15,weatherlink.com 1.10,2013-04-12 16:59:00,
2013-04-12 13:14:00,37.2,35.0,30.02,East,89,2.0,12.0,90,0.15,,,0.19,weatherlink.com 1.10,2013-04-12 17:14:00,
2013-04-12 13:29:00,37.0,34.0,30.01,East,90,5.0,14.0,90,0.12,,,0.20,weatherlink.com 1.10,2013-04-12 17:29:00,
2013-04-12 13:45:00,37.1,35.0,30.00,East,92,7.0,18.0,90,0.09,,,0.21,weatherlink.com 1.10,2013-04-12 17:45:00,
2013-04-12 14:00:00,37.1,35.0,29.99,ENE,73,7.0,14.0,91,0.07,,,0.22,weatherlink.com 1.10,2013-04-12 18:00:00,
2013-04-12 14:30:00,37.2,35.0,29.98,East,89,2.0,12.0,91,0.04,,,0.24,weatherlink.com 1.10,2013-04-12 18:30:00,
2013-04-12 15:30:00,37.7,35.0,29.92,East,79,4.0,18.0,91,0.04,,,0.28,weatherlink.com 1.10,2013-04-12 19:30:00,
2013-04-12 15:45:00,37.7,35.0,29.92,ESE,120,8.0,14.0,91,0.02,,,0.28,weatherlink.com 1.10,2013-04-12 19:45:00,
2013-04-12 16:00:00,37.6,35.0,29.91,ENE,57,2.0,12.0,91,0.01,,,0.28,weatherlink.com 1.10,2013-04-12 20:00:00,
2013-04-12 16:15:00,37.4,35.0,29.90,ENE,70,6.0,12.0,90,0.01,,,0.29,weatherlink.com 1.10,2013-04-12 20:15:00,
2013-04-12 16:30:00,37.3,35.0,29.90,East,82,8.0,11.0,91,0.01,,,0.29,weatherlink.com 1.10,2013-04-12 20:30:00,
2013-04-12 16:45:00,37.2,35.0,29.89,ENE,73,7.0,12.0,91,0.01,,,0.29,weatherlink.com 1.10,2013-04-12 20:45:00,
2013-04-12 17:00:00,37.1,35.0,29.88,ENE,57,2.0,11.0,92,0.02,,,0.30,weatherlink.com 1.10,2013-04-12 21:00:00,
2013-04-12 17:15:00,37.2,35.0,29.88,NE,46,8.0,14.0,92,0.01,,,0.30,weatherlink.com 1.10,2013-04-12 21:15:00,
2013-04-12 17:30:00,37.1,35.0,29.87,ENE,59,5.0,12.0,92,0.02,,,0.31,weatherlink.com 1.10,2013-04-12 21:30:00,
2013-04-12 17:45:00,37.1,35.0,29.86,ESE,102,4.0,13.0,92,0.02,,,0.31,weatherlink.com 1.10,2013-04-12 21:45:00,
2013-04-12 18:00:00,37.0,35.0,29.87,NE,35,3.0,11.0,93,0.02,,,0.32,weatherlink.com 1.10,2013-04-12 22:00:00,
2013-04-12 18:15:00,37.1,35.0,29.86,NNE,18,3.0,12.0,93,0.04,,,0.34,weatherlink.com 1.10,2013-04-12 22:15:00,
2013-04-12 18:30:00,37.3,36.0,29.84,NNE,18,8.0,11.0,93,0.03,,,0.34,weatherlink.com 1.10,2013-04-12 22:30:00,
2013-04-12 18:45:00,37.3,36.0,29.84,NNE,13,3.0,8.0,93,0.04,,,0.35,weatherlink.com 1.10,2013-04-12 22:45:00,
2013-04-12 19:00:00,37.3,36.0,29.84,NW,326,2.0,10.0,93,0.03,,,0.35,weatherlink.com 1.10,2013-04-12 23:00:00,
2013-04-12 19:15:00,37.4,36.0,29.83,ENE,77,2.0,12.0,94,0.01,,,0.35,weatherlink.com 1.10,2013-04-12 23:15:00,
2013-04-12 19:30:00,37.5,36.0,29.83,ESE,102,1.0,5.0,94,0.01,,,0.35,weatherlink.com 1.10,2013-04-12 23:30:00,
2013-04-12 19:45:00,37.7,36.0,29.82,NE,49,5.0,7.0,94,0.00,,,0.35,weatherlink.com 1.10,2013-04-12 23:45:00,
2013-04-12 20:00:00,37.8,36.0,29.81,NE,50,2.0,9.0,94,0.00,,,0.35,weatherlink.com 1.10,2013-04-13 00:00:00,
2013-04-12 20:15:00,37.9,36.0,29.82,NE,37,5.0,9.0,94,0.00,,,0.35,weatherlink.com 1.10,2013-04-13 00:15:00,
2013-04-12 20:30:00,37.9,36.0,29.82,NE,51,9.0,10.0,94,0.00,,,0.35,weatherlink.com 1.10,2013-04-13 00:30:00,
2013-04-12 20:45:00,38.0,37.0,29.81,NNE,27,5.0,10.0,94,0.01,,,0.36,weatherlink.com 1.10,2013-04-13 00:45:00,
2013-04-12 21:00:00,38.0,37.0,29.81,NNW,340,6.0,14.0,94,0.01,,,0.36,weatherlink.com 1.10,2013-04-13 01:00:00,
2013-04-12 21:15:00,38.0,37.0,29.81,NE,45,3.0,15.0,94,0.01,,,0.36,weatherlink.com 1.10,2013-04-13 01:15:00,
2013-04-12 21:30:00,38.0,37.0,29.81,NE,45,10.0,14.0,94,0.01,,,0.36,weatherlink.com 1.10,2013-04-13 01:30:00,
2013-04-12 21:45:00,38.1,37.0,29.81,WNW,293,2.0,12.0,94,0.00,,,0.36,weatherlink.com 1.10,2013-04-13 01:45:00,
2013-04-12 22:00:00,38.2,37.0,29.81,NW,323,5.0,13.0,94,0.00,,,0.36,weatherlink.com 1.10,2013-04-13 02:00:00,
2013-04-12 22:15:00,38.2,37.0,29.80,North,357,3.0,12.0,94,0.00,,,0.36,weatherlink.com 1.10,2013-04-13 02:15:00,
2013-04-12 22:30:00,38.2,37.0,29.79,NNW,340,13.0,14.0,94,0.00,,,0.36,weatherlink.com 1.10,2013-04-13 02:30:00,
2013-04-12 22:45:00,38.2,36.0,29.78,North,1,8.0,14.0,93,0.01,,,0.37,weatherlink.com 1.10,2013-04-13 02:45:00,
2013-04-12 23:00:00,38.2,36.0,29.79,ENE,59,5.0,13.0,93,0.01,,,0.37,weatherlink.com 1.10,2013-04-13 03:00:00,
2013-04-12 23:15:00,38.2,36.0,29.79,North,6,16.0,16.0,93,0.01,,,0.37,weatherlink.com 1.10,2013-04-13 03:15:00,
2013-04-12 23:30:00,38.1,36.0,29.79,NW,307,6.0,15.0,93,0.01,,,0.37,weatherlink.com 1.10,2013-04-13 03:30:00,
2013-04-12 23:45:00,38.0,37.0,29.79,NNE,14,5.0,11.0,94,0.00,,,0.37,weatherlink.com 1.10,2013-04-13 03:45:00,